Tracking 28794 objects as of 19-Apr-2024
HD Live streaming from Space Station
objects crossing your sky now

USA 17

Track USA 17 now!
10-day predictions
USA 17 is classified as:


NORAD ID: 16625
Int'l Code: 1986-014F
Perigee: 395.1 km
Apogee: 1,688.4 km
Inclination: 63.3 °
Period: 105.9 minutes
Semi major axis: 7412 km
RCS: Unknown
Launch date: February 9, 1986
Source: United States (US)
Launch site: AIR FORCE WESTERN TEST RANGE (AFWTR)
Your satellite tracking list
Your tracking list is empty




NASA's NSSDC Master Catalog

Two Line Element Set (TLE):
1 16625U 86014F   24110.36057203  .00011288  00000-0  92882-3 0  9995
2 16625  63.2975  86.1912 0872377 101.1984 268.8284 13.60300550234852
Source of the keplerian elements: AFSPC